Charter Quote
Worldwide +44-20-3874-8091 Call
Select Language Lang
SAFETY RELIABILITY EXPERIENCE

Wall Street Heliport (KJRB) - Jet Charter Services

AIRPORT INFORMATION
ICAOKJRB
LOCATIONNew York City, NY, United States
FACILITY TYPEAIRPORT
Runway Length (ft) Width (ft) Surface Type Elevation (ft)
Helipad 0 0 ASPH 7.00000

At Paramount Business Jets you can hire chartered private jets to and from Wall Street Heliport with as little as 4 hours of notice. All flights booked via Paramount Business Jets are operated by certified direct air carriers that meet and exceed the FAA part 135 and 121 protocol or a foreign equivalent safety authority. Furthermore, Paramount Business Jets subscribes to ARGUS for their third party safety checks of operators, aircraft, and crews prior each and every flight to and from Wall Street Heliport and worldwide.

  • Quote a trip using Wall Street Heliport or call us 24/7 - 365 days a year at +44-20-3874-8091.
Questions? Call +44-20-3874-8091

METAR Weather Data at Wall Street Heliport, KJRB

STATIONKJRB
OBSERVEDSun Mar 24, 05:56 UTC
NOWSun Mar 24, 06:49 UTC
AGE53 min ago
WINDcalm
VISIBILITY10 miles
CLOUDSclear skies
TEMP41°F (5°C)
DEWPT14°F (-10°C)
HUMIDITY33%
BAROMETER1022 hPa (30.18 in Hg)
METARKJRB 240556Z AUTO 00000KT 10SM CLR 05/M10 A3018 RMK AO2 SLP219 T00501100 10078 20050 53011

Call us on +44-20-3874-8091 (24 Hours) to Hire a Private Jet or Get a Quick Quote.

Find Airports Near any Location

Processing
...